KAL146 ZGHA-RKSI

Flight info

Callsign KAL146
Flight time 2h 39m
Altitude 35100
Route GUDRO W56 IDPOG A581 WHA R343 PK W116 JTN G327 LAMEN/N0444F330 A593 SADLI Y590 ELGEP Y722 CJU/N0447F310 Y722 OLMEN
Aircraft A21N/M-SDE2FGHIJ1J3J4J7M3P2RWXYZ/LB2D1G1

Departure

Time 2026-04-20 00:50
Airport Changsha Huanghua International Airport (ZGHA)

Arrival

Time 2026-04-20 03:29
Airport Incheon International Airport (RKSI)
Time Latitude Longitude Altitude Speed Heading
2026-04-20 00:31 28.18637 113.21446 226 ft 0 kts 357°
2026-04-20 00:38 28.18633 113.21446 226 ft 2 kts 357°
2026-04-20 00:38 28.18617 113.21446 226 ft 2 kts 357°
2026-04-20 00:39 28.18602 113.21447 226 ft 2 kts 357°
2026-04-20 00:39 28.18587 113.21448 227 ft 2 kts 356°
2026-04-20 00:39 28.18575 113.21442 226 ft 2 kts 57°
2026-04-20 00:39 28.18571 113.21432 226 ft 0 kts 92°
2026-04-20 00:40 28.18571 113.21424 226 ft 0 kts 88°
2026-04-20 00:42 28.18571 113.21426 226 ft 0 kts 87°
2026-04-20 00:42 28.18572 113.21443 226 ft 3 kts 86°
2026-04-20 00:42 28.18574 113.21480 226 ft 6 kts 86°
2026-04-20 00:43 28.18577 113.21538 226 ft 8 kts 87°
2026-04-20 00:43 28.18580 113.21615 226 ft 11 kts 87°
2026-04-20 00:43 28.18584 113.21709 226 ft 12 kts 87°
2026-04-20 00:43 28.18569 113.21803 227 ft 12 kts 142°
2026-04-20 00:44 28.18481 113.21815 226 ft 13 kts 176°
2026-04-20 00:44 28.18442 113.21818 226 ft 13 kts 177°
2026-04-20 00:45 28.18392 113.21821 227 ft 13 kts 176°
2026-04-20 00:47 28.18373 113.21822 227 ft 13 kts 176°
2026-04-20 00:47 28.18278 113.21828 227 ft 14 kts 176°
2026-04-20 00:47 28.18194 113.21835 227 ft 14 kts 176°
2026-04-20 00:47 28.18142 113.21837 226 ft 14 kts 177°
2026-04-20 00:48 28.18040 113.21843 227 ft 14 kts 176°
2026-04-20 00:48 28.17938 113.21850 227 ft 14 kts 176°
2026-04-20 00:48 28.17832 113.21857 227 ft 15 kts 177°
2026-04-20 00:48 28.17745 113.21906 227 ft 14 kts 110°
2026-04-20 00:49 28.17745 113.22007 227 ft 12 kts 86°
2026-04-20 00:49 28.17780 113.22047 227 ft 8 kts 359°
2026-04-20 00:49 28.17918 113.22040 227 ft 49 kts 357°
2026-04-20 00:49 28.18520 113.22002 227 ft 120 kts 357°
2026-04-20 00:50 28.19562 113.21937 256 ft 173 kts 358°
2026-04-20 00:50 28.20772 113.21864 889 ft 175 kts 358°
2026-04-20 00:50 28.21959 113.21794 1728 ft 172 kts 360°
2026-04-20 00:50 28.23107 113.21724 2435 ft 166 kts
2026-04-20 00:51 28.24265 113.21658 2938 ft 168 kts
2026-04-20 00:51 28.25436 113.21590 3425 ft 170 kts
2026-04-20 00:51 28.26656 113.21523 3751 ft 183 kts
2026-04-20 00:51 28.27953 113.21660 4038 ft 194 kts 24°
2026-04-20 00:52 28.29019 113.22602 4329 ft 205 kts 54°
2026-04-20 00:52 28.29832 113.24003 4734 ft 216 kts 58°
2026-04-20 00:52 28.30666 113.25430 5255 ft 221 kts 58°
2026-04-20 00:52 28.31521 113.26878 5802 ft 225 kts 58°
2026-04-20 00:53 28.32406 113.28372 6357 ft 229 kts 58°
2026-04-20 00:53 28.33295 113.29872 6903 ft 233 kts 59°
2026-04-20 00:53 28.34213 113.31423 7240 ft 249 kts 58°
2026-04-20 00:53 28.35224 113.33137 7554 ft 267 kts 58°
2026-04-20 00:54 28.36278 113.34924 7938 ft 283 kts 58°
2026-04-20 00:54 28.37397 113.36816 8535 ft 289 kts 58°
2026-04-20 00:54 28.38510 113.38693 9172 ft 294 kts 58°
2026-04-20 00:54 28.39659 113.40637 9812 ft 298 kts 58°
2026-04-20 00:55 28.40812 113.42591 10371 ft 305 kts 58°
2026-04-20 00:55 28.42036 113.44666 10667 ft 321 kts 58°
2026-04-20 00:55 28.43481 113.46648 10921 ft 339 kts 40°
2026-04-20 00:55 28.45608 113.47866 11300 ft 351 kts 13°
2026-04-20 00:56 28.48043 113.48158 11904 ft 353 kts
2026-04-20 00:56 28.50512 113.48287 12491 ft 355 kts
2026-04-20 00:56 28.52992 113.48430 13054 ft 358 kts
2026-04-20 00:56 28.55474 113.48586 13585 ft 362 kts
2026-04-20 00:57 28.58013 113.48756 14131 ft 365 kts
2026-04-20 00:57 28.60549 113.48933 14640 ft 369 kts
2026-04-20 00:57 28.63125 113.49116 15166 ft 371 kts
2026-04-20 00:57 28.65718 113.49303 15693 ft 374 kts
2026-04-20 00:58 28.68316 113.49489 16152 ft 377 kts
2026-04-20 00:58 28.70939 113.49678 16635 ft 380 kts
2026-04-20 00:58 28.73590 113.49870 17099 ft 382 kts
2026-04-20 00:58 28.76260 113.50063 17550 ft 385 kts
2026-04-20 00:59 28.78944 113.50256 18003 ft 388 kts
2026-04-20 00:59 28.81644 113.50447 18472 ft 390 kts
2026-04-20 00:59 28.84374 113.50641 18950 ft 391 kts
2026-04-20 00:59 28.87086 113.50836 19377 ft 393 kts
2026-04-20 01:00 28.89845 113.51033 19795 ft 396 kts
2026-04-20 01:00 28.92590 113.51230 20244 ft 397 kts
2026-04-20 01:00 28.95324 113.51427 20661 ft 398 kts
2026-04-20 01:00 28.98137 113.51630 21058 ft 401 kts
2026-04-20 01:01 29.00914 113.51829 21457 ft 402 kts
2026-04-20 01:01 29.03691 113.52029 21844 ft 404 kts
2026-04-20 01:01 29.06520 113.52235 22265 ft 405 kts
2026-04-20 01:01 29.09326 113.52438 22656 ft 406 kts
2026-04-20 01:02 29.12171 113.52645 23031 ft 408 kts
2026-04-20 01:02 29.14988 113.52848 23402 ft 409 kts
2026-04-20 01:02 29.17836 113.53057 23747 ft 411 kts
2026-04-20 01:02 29.20711 113.53265 24093 ft 413 kts
2026-04-20 01:03 29.23564 113.53474 24447 ft 415 kts
2026-04-20 01:03 29.26477 113.53684 24800 ft 417 kts
2026-04-20 01:03 29.29358 113.53898 25143 ft 419 kts
2026-04-20 01:03 29.32294 113.54144 25470 ft 422 kts
2026-04-20 01:04 29.35245 113.54401 25799 ft 424 kts
2026-04-20 01:04 29.38164 113.54655 26136 ft 425 kts
2026-04-20 01:04 29.41137 113.54913 26467 ft 426 kts
2026-04-20 01:04 29.44079 113.55170 26786 ft 428 kts
2026-04-20 01:05 29.47083 113.55432 27077 ft 430 kts
2026-04-20 01:05 29.50048 113.55689 27370 ft 432 kts
2026-04-20 01:05 29.53045 113.55947 27643 ft 434 kts
2026-04-20 01:05 29.56083 113.56215 27948 ft 435 kts
2026-04-20 01:06 29.59090 113.56477 28240 ft 437 kts 360°
2026-04-20 01:06 29.62131 113.56741 28544 ft 438 kts 360°
2026-04-20 01:06 29.65166 113.57005 28827 ft 439 kts 360°
2026-04-20 01:06 29.68247 113.57273 29098 ft 441 kts
2026-04-20 01:07 29.71300 113.57540 29391 ft 442 kts
2026-04-20 01:07 29.74382 113.57812 29673 ft 444 kts 359°
2026-04-20 01:07 29.77450 113.58081 29951 ft 445 kts 360°
2026-04-20 01:07 29.80525 113.58349 30236 ft 446 kts 359°
2026-04-20 01:08 29.83631 113.58619 30484 ft 448 kts 359°
2026-04-20 01:08 29.86769 113.58903 30748 ft 450 kts
2026-04-20 01:08 29.89886 113.59341 30974 ft 454 kts
2026-04-20 01:08 29.93011 113.60001 31211 ft 458 kts
2026-04-20 01:09 29.96092 113.60883 31462 ft 462 kts 11°
2026-04-20 01:09 29.99163 113.61999 31768 ft 464 kts 14°
2026-04-20 01:09 30.02206 113.63357 32137 ft 464 kts 18°
2026-04-20 01:09 30.05174 113.64823 32480 ft 464 kts 18°
2026-04-20 01:10 30.08106 113.66296 32791 ft 463 kts 19°
2026-04-20 01:10 30.14022 113.69273 33268 ft 464 kts 19°
2026-04-20 01:10 30.16983 113.70757 33529 ft 465 kts 18°
2026-04-20 01:11 30.19951 113.72245 33816 ft 465 kts 18°
2026-04-20 01:11 30.22914 113.73730 34099 ft 465 kts 18°
2026-04-20 01:11 30.25899 113.75223 34297 ft 466 kts 18°
2026-04-20 01:11 30.28878 113.76717 34439 ft 469 kts 18°
2026-04-20 01:12 30.31840 113.78200 34672 ft 469 kts 17°
2026-04-20 01:12 30.34863 113.79718 34934 ft 469 kts 18°
2026-04-20 01:12 30.37866 113.81226 35090 ft 472 kts 18°
2026-04-20 01:12 30.40865 113.82735 35181 ft 474 kts 17°
2026-04-20 01:13 30.46920 113.85780 35184 ft 474 kts 17°
2026-04-20 01:13 30.52970 113.88830 35188 ft 474 kts 18°
2026-04-20 01:14 30.58913 113.92247 35193 ft 481 kts 26°
2026-04-20 01:14 30.64235 113.96962 35189 ft 489 kts 38°
2026-04-20 01:15 30.68700 114.02965 35193 ft 495 kts 52°
2026-04-20 01:15 30.72396 114.09706 35196 ft 496 kts 55°
2026-04-20 01:16 30.76043 114.16521 35195 ft 497 kts 56°
2026-04-20 01:16 30.79255 114.23650 35194 ft 501 kts 63°
2026-04-20 01:17 30.81819 114.31155 35193 ft 502 kts 67°
2026-04-20 01:17 30.84226 114.38771 35194 ft 501 kts 67°
2026-04-20 01:18 30.86642 114.46338 35183 ft 501 kts 66°
2026-04-20 01:18 30.89103 114.53896 35185 ft 501 kts 66°
2026-04-20 01:19 30.91565 114.61459 35182 ft 500 kts 66°
2026-04-20 01:19 30.94016 114.69021 35184 ft 502 kts 67°
2026-04-20 01:20 30.96462 114.76605 35180 ft 501 kts 67°
2026-04-20 01:20 30.98895 114.84174 35177 ft 500 kts 66°
2026-04-20 01:21 31.01332 114.91762 35183 ft 500 kts 66°
2026-04-20 01:21 31.03763 114.99323 35172 ft 500 kts 66°
2026-04-20 01:22 31.06181 115.06885 35172 ft 499 kts 66°
2026-04-20 01:22 31.08593 115.14464 35171 ft 499 kts 66°
2026-04-20 01:23 31.11005 115.22036 35176 ft 500 kts 66°
2026-04-20 01:23 31.13398 115.29611 35189 ft 500 kts 66°
2026-04-20 01:24 31.15852 115.37173 35191 ft 501 kts 65°
2026-04-20 01:24 31.18330 115.44795 35187 ft 501 kts 66°
2026-04-20 01:25 31.20783 115.52392 35194 ft 501 kts 65°
2026-04-20 01:25 31.23223 115.59973 35201 ft 502 kts 66°
2026-04-20 01:26 31.25659 115.67559 35207 ft 503 kts 66°
2026-04-20 01:26 31.28103 115.75198 35213 ft 503 kts 66°
2026-04-20 01:27 31.30546 115.82851 35216 ft 503 kts 66°
2026-04-20 01:27 31.32981 115.90460 35220 ft 504 kts 66°
2026-04-20 01:28 31.35488 115.98114 35218 ft 504 kts 66°
2026-04-20 01:28 31.37978 116.05746 35225 ft 503 kts 65°
2026-04-20 01:29 31.40460 116.13376 35227 ft 503 kts 65°
2026-04-20 01:29 31.42928 116.20987 35225 ft 504 kts 65°
2026-04-20 01:30 31.45403 116.28638 35228 ft 504 kts 65°
2026-04-20 01:30 31.47871 116.36300 35229 ft 504 kts 65°
2026-04-20 01:31 31.50346 116.43989 35220 ft 504 kts 65°
2026-04-20 01:31 31.52803 116.51639 35223 ft 506 kts 65°
2026-04-20 01:32 31.55266 116.59330 35219 ft 507 kts 65°
2026-04-20 01:32 31.57729 116.67050 35212 ft 506 kts 66°
2026-04-20 01:33 31.60195 116.74786 35216 ft 506 kts 65°
2026-04-20 01:33 31.62637 116.82466 35218 ft 507 kts 65°
2026-04-20 01:34 31.65091 116.90204 35213 ft 507 kts 66°
2026-04-20 01:34 31.67532 116.97937 35214 ft 507 kts 65°
2026-04-20 01:35 31.69964 117.05698 35214 ft 507 kts 66°
2026-04-20 01:35 31.72343 117.13414 35217 ft 506 kts 65°
2026-04-20 01:36 31.74708 117.21197 35212 ft 507 kts 68°
2026-04-20 01:36 31.76368 117.29230 35215 ft 511 kts 77°
2026-04-20 01:37 31.76938 117.37585 35216 ft 516 kts 88°
2026-04-20 01:37 31.76506 117.45984 35207 ft 517 kts 94°
2026-04-20 01:38 31.75858 117.54385 35204 ft 515 kts 93°
2026-04-20 01:38 31.75246 117.62690 35203 ft 515 kts 92°
2026-04-20 01:39 31.74653 117.71111 35199 ft 516 kts 94°
2026-04-20 01:39 31.74056 117.79460 35200 ft 515 kts 93°
2026-04-20 01:40 31.73461 117.87791 35198 ft 514 kts 93°
2026-04-20 01:40 31.72860 117.96112 35195 ft 514 kts 94°
2026-04-20 01:41 31.72244 118.04485 35194 ft 514 kts 93°
2026-04-20 01:41 31.71635 118.12814 35190 ft 514 kts 93°
2026-04-20 01:42 31.71061 118.21116 35187 ft 513 kts 92°
2026-04-20 01:42 31.70487 118.29436 35188 ft 513 kts 93°
2026-04-20 01:43 31.69901 118.37746 35182 ft 513 kts 92°
2026-04-20 01:43 31.69305 118.46101 35181 ft 513 kts 92°
2026-04-20 01:44 31.68710 118.54417 35179 ft 514 kts 93°
2026-04-20 01:44 31.68099 118.62788 35179 ft 514 kts 92°
2026-04-20 01:45 31.67495 118.71090 35169 ft 514 kts 94°
2026-04-20 01:45 31.66878 118.79429 35170 ft 513 kts 94°
2026-04-20 01:46 31.66255 118.87738 35165 ft 512 kts 94°
2026-04-20 01:46 31.65632 118.96007 35166 ft 513 kts 93°
2026-04-20 01:47 31.65002 119.04352 35161 ft 512 kts 92°
2026-04-20 01:47 31.64562 119.12596 35166 ft 512 kts 91°
2026-04-20 01:48 31.64193 119.20941 35166 ft 512 kts 91°
2026-04-20 01:48 31.63833 119.29239 35165 ft 511 kts 91°
2026-04-20 01:49 31.63453 119.37555 35161 ft 509 kts 91°
2026-04-20 01:49 31.63070 119.45782 35163 ft 510 kts 91°
2026-04-20 01:50 31.62668 119.54117 35163 ft 510 kts 91°
2026-04-20 01:50 31.62269 119.62345 35167 ft 510 kts 90°
2026-04-20 01:51 31.61872 119.70626 35163 ft 509 kts 91°
2026-04-20 01:51 31.61497 119.78890 35167 ft 509 kts 91°
2026-04-20 01:52 31.61119 119.87193 35163 ft 509 kts 91°
2026-04-20 01:52 31.60730 119.95390 35160 ft 509 kts 91°
2026-04-20 01:53 31.60335 120.03694 35158 ft 508 kts 91°
2026-04-20 01:53 31.59938 120.11928 35162 ft 508 kts 91°
2026-04-20 01:54 31.59519 120.20171 35159 ft 509 kts 93°
2026-04-20 01:54 31.58136 120.28323 35159 ft 510 kts 102°
2026-04-20 01:55 31.56422 120.36340 35152 ft 511 kts 103°
2026-04-20 01:55 31.54730 120.44414 35151 ft 510 kts 102°
2026-04-20 01:56 31.53083 120.52445 35152 ft 509 kts 102°
2026-04-20 01:56 31.51435 120.60519 35150 ft 509 kts 102°
2026-04-20 01:57 31.49794 120.68528 35147 ft 509 kts 102°
2026-04-20 01:57 31.48139 120.76601 35145 ft 510 kts 102°
2026-04-20 01:58 31.46491 120.84594 35149 ft 509 kts 102°
2026-04-20 01:58 31.44824 120.92661 35151 ft 509 kts 102°
2026-04-20 01:59 31.43157 121.00710 35152 ft 510 kts 102°
2026-04-20 01:59 31.41485 121.08737 35151 ft 509 kts 103°
2026-04-20 02:00 31.39818 121.16733 35151 ft 509 kts 103°
2026-04-20 02:00 31.38138 121.24744 35151 ft 509 kts 103°
2026-04-20 02:01 31.36451 121.32777 35150 ft 509 kts 102°
2026-04-20 02:01 31.34765 121.40765 35149 ft 507 kts 102°
2026-04-20 02:02 31.33081 121.48731 35149 ft 506 kts 103°
2026-04-20 02:02 31.31384 121.56709 35148 ft 506 kts 103°
2026-04-20 02:03 31.29688 121.64696 35148 ft 506 kts 103°
2026-04-20 02:03 31.27986 121.72661 35147 ft 505 kts 103°
2026-04-20 02:04 31.26288 121.80570 35149 ft 505 kts 103°
2026-04-20 02:04 31.24580 121.88521 35147 ft 504 kts 103°
2026-04-20 02:05 31.22869 121.96435 35150 ft 503 kts 103°
2026-04-20 02:05 31.21161 122.04328 35149 ft 503 kts 103°
2026-04-20 02:06 31.19456 122.12183 35148 ft 503 kts 103°
2026-04-20 02:06 31.17732 122.20100 35148 ft 503 kts 103°
2026-04-20 02:07 31.16014 122.27957 35146 ft 502 kts 103°
2026-04-20 02:07 31.14291 122.35822 35146 ft 502 kts 103°
2026-04-20 02:08 31.12552 122.43729 35146 ft 502 kts 103°
2026-04-20 02:08 31.10815 122.51598 35146 ft 501 kts 103°
2026-04-20 02:09 31.09083 122.59438 35145 ft 501 kts 103°
2026-04-20 02:09 31.07339 122.67306 35143 ft 501 kts 104°
2026-04-20 02:10 31.05594 122.75138 35147 ft 501 kts 104°
2026-04-20 02:10 31.03856 122.82925 35145 ft 501 kts 104°
2026-04-20 02:11 31.02131 122.90803 35143 ft 501 kts 101°
2026-04-20 02:11 31.01371 122.98819 35141 ft 497 kts 88°
2026-04-20 02:12 31.02037 123.06780 35143 ft 492 kts 75°
2026-04-20 02:12 31.03932 123.14389 35141 ft 489 kts 67°
2026-04-20 02:13 31.06095 123.21849 35140 ft 489 kts 67°
2026-04-20 02:13 31.08242 123.29356 35139 ft 489 kts 68°
2026-04-20 02:14 31.10364 123.36889 35139 ft 489 kts 68°
2026-04-20 02:14 31.12463 123.44394 35135 ft 489 kts 68°
2026-04-20 02:15 31.14556 123.51918 35133 ft 489 kts 68°
2026-04-20 02:15 31.16642 123.59421 35132 ft 489 kts 68°
2026-04-20 02:16 31.18739 123.66987 35125 ft 489 kts 68°
2026-04-20 02:16 31.20810 123.74480 35125 ft 489 kts 68°
2026-04-20 02:17 31.22903 123.82069 35125 ft 490 kts 68°
2026-04-20 02:17 31.24982 123.89631 35124 ft 490 kts 68°
2026-04-20 02:18 31.27052 123.97177 35123 ft 490 kts 68°
2026-04-20 02:18 31.29121 124.04739 35121 ft 491 kts 68°
2026-04-20 02:19 31.30158 124.08534 35011 ft 492 kts 68°
2026-04-20 02:19 31.31197 124.12341 34718 ft 492 kts 68°
2026-04-20 02:19 31.32235 124.16157 34429 ft 492 kts 68°
2026-04-20 02:19 31.33259 124.19919 34146 ft 493 kts 68°
2026-04-20 02:20 31.34308 124.23775 33858 ft 494 kts 68°
2026-04-20 02:20 31.35337 124.27567 33581 ft 494 kts 68°
2026-04-20 02:20 31.36372 124.31392 33314 ft 494 kts 68°
2026-04-20 02:20 31.37403 124.35199 33066 ft 495 kts 68°
2026-04-20 02:21 31.40521 124.46757 33011 ft 497 kts 68°
2026-04-20 02:22 31.42586 124.54437 33013 ft 498 kts 68°
2026-04-20 02:22 31.44662 124.62176 33011 ft 497 kts 68°
2026-04-20 02:23 31.46721 124.69871 33009 ft 498 kts 69°
2026-04-20 02:23 31.48780 124.77590 33007 ft 499 kts 69°
2026-04-20 02:24 31.50837 124.85322 33005 ft 499 kts 69°
2026-04-20 02:24 31.52899 124.93090 33004 ft 499 kts 69°
2026-04-20 02:25 31.54950 125.00848 33004 ft 498 kts 68°
2026-04-20 02:25 31.56988 125.08562 33004 ft 498 kts 69°
2026-04-20 02:26 31.59029 125.16320 33000 ft 499 kts 69°
2026-04-20 02:26 31.61060 125.24058 33000 ft 498 kts 68°
2026-04-20 02:27 31.63093 125.31832 32998 ft 499 kts 68°
2026-04-20 02:27 31.65111 125.39550 32995 ft 499 kts 68°
2026-04-20 02:28 31.67131 125.47318 32997 ft 500 kts 68°
2026-04-20 02:28 31.69152 125.55107 32997 ft 500 kts 68°
2026-04-20 02:29 31.71163 125.62887 32994 ft 500 kts 68°
2026-04-20 02:29 31.73054 125.70731 32990 ft 501 kts 71°
2026-04-20 02:30 31.74803 125.78676 32989 ft 501 kts 71°
2026-04-20 02:30 31.77072 125.86298 32984 ft 492 kts 57°
2026-04-20 02:31 31.81053 125.92614 32986 ft 475 kts 38°
2026-04-20 02:31 31.86267 125.97098 32983 ft 458 kts 20°
2026-04-20 02:32 31.92079 125.99835 32990 ft 449 kts 12°
2026-04-20 02:32 31.97978 126.02244 32984 ft 449 kts 12°
2026-04-20 02:33 32.03848 126.04698 32975 ft 449 kts 12°
2026-04-20 02:33 32.09732 126.07185 32983 ft 450 kts 12°
2026-04-20 02:34 32.15624 126.09678 32982 ft 450 kts 12°
2026-04-20 02:34 32.21541 126.12187 32980 ft 450 kts 12°
2026-04-20 02:35 32.27407 126.14681 32981 ft 450 kts 12°
2026-04-20 02:35 32.33292 126.17185 32980 ft 450 kts 12°
2026-04-20 02:36 32.39195 126.19700 32977 ft 451 kts 12°
2026-04-20 02:36 32.45085 126.22215 32978 ft 452 kts 12°
2026-04-20 02:37 32.51016 126.24751 32976 ft 452 kts 12°
2026-04-20 02:37 32.56934 126.27284 32974 ft 451 kts 12°
2026-04-20 02:38 32.62801 126.29797 32972 ft 451 kts 12°
2026-04-20 02:38 32.68711 126.32335 32965 ft 452 kts 12°
2026-04-20 02:39 32.74643 126.34885 32956 ft 452 kts 12°
2026-04-20 02:39 32.80575 126.37443 32957 ft 454 kts 12°
2026-04-20 02:40 32.86483 126.39992 32954 ft 453 kts 12°
2026-04-20 02:40 32.92455 126.42576 32953 ft 455 kts 12°
2026-04-20 02:41 32.98397 126.45150 32952 ft 455 kts 12°
2026-04-20 02:41 33.04328 126.47704 32953 ft 456 kts 12°
2026-04-20 02:42 33.10290 126.50262 32955 ft 456 kts 12°
2026-04-20 02:42 33.16282 126.52840 32955 ft 456 kts 12°
2026-04-20 02:43 33.22247 126.55411 32954 ft 457 kts 12°
2026-04-20 02:43 33.28228 126.57996 32954 ft 456 kts 12°
2026-04-20 02:44 33.34168 126.60568 32961 ft 456 kts 12°
2026-04-20 02:44 33.40129 126.63149 32959 ft 457 kts 12°
2026-04-20 02:45 33.46095 126.65751 32961 ft 456 kts 13°
2026-04-20 02:45 33.52130 126.68218 32958 ft 455 kts
2026-04-20 02:46 33.58229 126.69906 32961 ft 447 kts
2026-04-20 02:46 33.64354 126.70796 32955 ft 443 kts 358°
2026-04-20 02:47 33.70497 126.71429 32955 ft 442 kts 357°
2026-04-20 02:47 33.76644 126.72065 32953 ft 443 kts 358°
2026-04-20 02:48 33.82756 126.72710 32946 ft 443 kts 358°
2026-04-20 02:48 33.88941 126.73363 32949 ft 444 kts 358°
2026-04-20 02:49 33.95099 126.74003 32947 ft 445 kts 357°
2026-04-20 02:49 34.01269 126.74647 32947 ft 446 kts 357°
2026-04-20 02:50 34.07423 126.75292 32946 ft 445 kts 358°
2026-04-20 02:50 34.13590 126.75940 32947 ft 446 kts 357°
2026-04-20 02:51 34.19792 126.76591 32945 ft 448 kts 357°
2026-04-20 02:51 34.25959 126.77240 32947 ft 447 kts 358°
2026-04-20 02:52 34.32142 126.77897 32950 ft 447 kts 357°
2026-04-20 02:52 34.38358 126.78556 32951 ft 449 kts 358°
2026-04-20 02:53 34.44572 126.79218 32954 ft 449 kts 357°
2026-04-20 02:53 34.50818 126.79886 32957 ft 449 kts 357°
2026-04-20 02:54 34.57030 126.80547 32955 ft 449 kts 357°
2026-04-20 02:54 34.63274 126.81216 32957 ft 450 kts 357°
2026-04-20 02:55 34.69530 126.81883 32956 ft 453 kts 357°
2026-04-20 02:55 34.75791 126.82555 32959 ft 452 kts 357°
2026-04-20 02:56 34.82025 126.83225 32954 ft 454 kts 357°
2026-04-20 02:56 34.88339 126.83904 32956 ft 454 kts 357°
2026-04-20 02:57 34.94607 126.84581 32955 ft 454 kts 357°
2026-04-20 02:57 35.00917 126.85260 32949 ft 456 kts 357°
2026-04-20 02:58 35.07256 126.85948 32952 ft 456 kts 357°
2026-04-20 02:58 35.13567 126.86632 32954 ft 456 kts 357°
2026-04-20 02:59 35.19902 126.87319 32949 ft 458 kts 357°
2026-04-20 02:59 35.26249 126.88007 32953 ft 459 kts 357°
2026-04-20 03:00 35.32606 126.88703 32950 ft 461 kts 357°
2026-04-20 03:00 35.38992 126.89397 32946 ft 462 kts 356°
2026-04-20 03:01 35.45387 126.90096 32948 ft 461 kts 357°
2026-04-20 03:01 35.51802 126.90800 32953 ft 461 kts 356°
2026-04-20 03:02 35.58190 126.91498 32951 ft 463 kts 356°
2026-04-20 03:02 35.64595 126.92194 32948 ft 465 kts 356°
2026-04-20 03:03 35.71046 126.92905 32947 ft 466 kts 356°
2026-04-20 03:03 35.77528 126.93615 32950 ft 469 kts 356°
2026-04-20 03:03 35.80749 126.93971 32760 ft 467 kts 356°
2026-04-20 03:04 35.83987 126.94327 32486 ft 467 kts 356°
2026-04-20 03:04 35.87250 126.94683 32206 ft 466 kts 356°
2026-04-20 03:04 35.90454 126.95038 31865 ft 462 kts 356°
2026-04-20 03:04 35.93617 126.95392 31364 ft 459 kts 356°
2026-04-20 03:05 35.96827 126.95747 30748 ft 457 kts 356°
2026-04-20 03:05 35.99942 126.96090 30107 ft 456 kts 356°
2026-04-20 03:05 36.03131 126.96439 29443 ft 455 kts 356°
2026-04-20 03:05 36.06237 126.96782 28790 ft 454 kts 357°
2026-04-20 03:06 36.09391 126.97130 28118 ft 452 kts 357°
2026-04-20 03:06 36.12515 126.97477 27449 ft 452 kts 357°
2026-04-20 03:06 36.15630 126.97824 26777 ft 450 kts 357°
2026-04-20 03:06 36.18775 126.98173 26105 ft 449 kts 357°
2026-04-20 03:07 36.21841 126.98518 25448 ft 447 kts 357°
2026-04-20 03:07 36.24927 126.98860 24781 ft 446 kts 358°
2026-04-20 03:07 36.28005 126.99201 24116 ft 444 kts 358°
2026-04-20 03:07 36.31078 126.99547 23456 ft 442 kts 358°
2026-04-20 03:08 36.34121 126.99889 22883 ft 437 kts 358°
2026-04-20 03:08 36.37109 127.00210 22337 ft 424 kts 357°
2026-04-20 03:08 36.39987 127.00342 21840 ft 408 kts 353°
2026-04-20 03:08 36.42828 127.00278 21347 ft 402 kts 351°
2026-04-20 03:09 36.45615 127.00166 20871 ft 399 kts 351°
2026-04-20 03:09 36.48345 127.00054 20401 ft 395 kts 351°
2026-04-20 03:09 36.51090 126.99944 19920 ft 392 kts 351°
2026-04-20 03:09 36.53805 126.99841 19458 ft 389 kts 351°
2026-04-20 03:10 36.56498 126.99741 19034 ft 380 kts 351°
2026-04-20 03:10 36.59095 126.99652 18459 ft 371 kts 352°
2026-04-20 03:10 36.61663 126.99561 17659 ft 367 kts 352°
2026-04-20 03:10 36.64190 126.99468 16945 ft 368 kts 352°
2026-04-20 03:11 36.66729 126.99377 16469 ft 365 kts 352°
2026-04-20 03:11 36.69252 126.99287 16015 ft 362 kts 352°
2026-04-20 03:11 36.71764 126.99161 15533 ft 358 kts 348°
2026-04-20 03:11 36.74208 126.98653 15030 ft 350 kts 339°
2026-04-20 03:12 36.76485 126.97722 14564 ft 342 kts 331°
2026-04-20 03:12 36.78682 126.96584 14094 ft 339 kts 330°
2026-04-20 03:12 36.80818 126.95433 13626 ft 336 kts 329°
2026-04-20 03:12 36.82951 126.94288 13184 ft 334 kts 330°
2026-04-20 03:13 36.85105 126.93137 12715 ft 333 kts 330°
2026-04-20 03:13 36.87218 126.92013 12222 ft 332 kts 330°
2026-04-20 03:13 36.89354 126.90884 11739 ft 331 kts 331°
2026-04-20 03:13 36.91450 126.89733 11274 ft 326 kts 326°
2026-04-20 03:14 36.93151 126.88008 10787 ft 311 kts 303°
2026-04-20 03:14 36.94137 126.85699 10437 ft 295 kts 283°
2026-04-20 03:14 36.94556 126.83282 10260 ft 282 kts 277°
2026-04-20 03:14 36.94917 126.80907 10075 ft 272 kts 277°
2026-04-20 03:15 36.95262 126.78644 9879 ft 263 kts 277°
2026-04-20 03:15 36.95606 126.76424 9613 ft 258 kts 276°
2026-04-20 03:15 36.95943 126.74250 9199 ft 257 kts 277°
2026-04-20 03:15 36.96285 126.72039 8832 ft 256 kts 277°
2026-04-20 03:16 36.96624 126.69867 8487 ft 254 kts 277°
2026-04-20 03:16 36.96960 126.67708 8125 ft 254 kts 277°
2026-04-20 03:16 36.97292 126.65567 7741 ft 253 kts 278°
2026-04-20 03:16 36.97630 126.63401 7358 ft 252 kts 278°
2026-04-20 03:17 36.97958 126.61292 7001 ft 250 kts 278°
2026-04-20 03:17 36.98291 126.59152 6602 ft 249 kts 279°
2026-04-20 03:17 36.98798 126.57102 6213 ft 251 kts 288°
2026-04-20 03:17 36.99667 126.55182 5834 ft 255 kts 302°
2026-04-20 03:18 37.00813 126.53515 5494 ft 255 kts 309°
2026-04-20 03:18 37.02050 126.51911 5140 ft 254 kts 310°
2026-04-20 03:18 37.03273 126.50357 4809 ft 251 kts 310°
2026-04-20 03:18 37.04490 126.48805 4442 ft 249 kts 310°
2026-04-20 03:19 37.05702 126.47254 4055 ft 248 kts 311°
2026-04-20 03:19 37.06888 126.45731 3688 ft 246 kts 311°
2026-04-20 03:19 37.08078 126.44203 3334 ft 244 kts 312°
2026-04-20 03:19 37.09295 126.42717 2949 ft 244 kts 320°
2026-04-20 03:20 37.10857 126.41934 2745 ft 251 kts 348°
2026-04-20 03:20 37.12611 126.42115 2596 ft 253 kts 15°
2026-04-20 03:20 37.14047 126.43270 2558 ft 246 kts 44°
2026-04-20 03:20 37.14929 126.45070 2563 ft 235 kts 63°
2026-04-20 03:21 37.15582 126.46934 2563 ft 234 kts 64°
2026-04-20 03:21 37.16229 126.48807 2560 ft 235 kts 64°
2026-04-20 03:21 37.16881 126.50677 2555 ft 234 kts 64°
2026-04-20 03:21 37.17538 126.52538 2562 ft 234 kts 63°
2026-04-20 03:22 37.18253 126.54369 2554 ft 233 kts 57°
2026-04-20 03:22 37.19134 126.56068 2561 ft 231 kts 51°
2026-04-20 03:22 37.20051 126.57685 2424 ft 227 kts 50°
2026-04-20 03:22 37.20986 126.59313 2068 ft 229 kts 50°
2026-04-20 03:23 37.21991 126.60840 1743 ft 224 kts 31°
2026-04-20 03:23 37.23352 126.61505 1550 ft 207 kts 355°
2026-04-20 03:23 37.24707 126.61066 1565 ft 202 kts 327°
2026-04-20 03:23 37.25882 126.60116 1573 ft 200 kts 322°
2026-04-20 03:24 37.27014 126.59085 1568 ft 198 kts 321°
2026-04-20 03:24 37.28119 126.58069 1555 ft 199 kts 321°
2026-04-20 03:24 37.29210 126.57078 1634 ft 183 kts 321°
2026-04-20 03:24 37.30211 126.56181 1571 ft 171 kts 321°
2026-04-20 03:25 37.31175 126.55318 1562 ft 170 kts 321°
2026-04-20 03:25 37.32143 126.54453 1557 ft 170 kts 321°
2026-04-20 03:25 37.33108 126.53593 1561 ft 168 kts 321°
2026-04-20 03:25 37.34047 126.52759 1588 ft 159 kts 321°
2026-04-20 03:26 37.34127 126.52689 1581 ft 157 kts 321°
2026-04-20 03:26 37.35002 126.51914 1547 ft 150 kts 321°
2026-04-20 03:26 37.35840 126.51167 1552 ft 149 kts 321°
2026-04-20 03:26 37.36689 126.50411 1557 ft 148 kts 320°
2026-04-20 03:27 37.37533 126.49659 1563 ft 147 kts 320°
2026-04-20 03:27 37.38357 126.48925 1440 ft 145 kts 321°
2026-04-20 03:27 37.39187 126.48186 1241 ft 144 kts 321°
2026-04-20 03:27 37.39997 126.47466 1047 ft 143 kts 320°
2026-04-20 03:28 37.40811 126.46742 858 ft 143 kts 320°
2026-04-20 03:28 37.41621 126.46021 658 ft 142 kts 321°
2026-04-20 03:28 37.43230 126.44582 286 ft 141 kts 321°
2026-04-20 03:29 37.44036 126.43863 89 ft 140 kts 321°
2026-04-20 03:29 37.44798 126.43187 30 ft 124 kts 321°
2026-04-20 03:29 37.45374 126.42669 29 ft 77 kts 323°
2026-04-20 03:29 37.45697 126.42439 29 ft 36 kts 348°
2026-04-20 03:30 37.45906 126.42410 28 ft 24 kts 354°
2026-04-20 03:30 37.46056 126.42329 29 ft 23 kts 325°
2026-04-20 03:30 37.46187 126.42213 29 ft 23 kts 325°
2026-04-20 03:30 37.46318 126.42096 29 ft 22 kts 325°
2026-04-20 03:31 37.46438 126.41989 28 ft 14 kts 325°
2026-04-20 03:31 37.46524 126.42005 28 ft 14 kts 53°
2026-04-20 03:31 37.46584 126.42112 28 ft 15 kts 55°
2026-04-20 03:31 37.46644 126.42220 28 ft 15 kts 55°
2026-04-20 03:32 37.46684 126.42320 28 ft 13 kts 100°
2026-04-20 03:32 37.46621 126.42402 28 ft 13 kts 144°
2026-04-20 03:32 37.46543 126.42471 28 ft 14 kts 145°
2026-04-20 03:32 37.46461 126.42544 29 ft 14 kts 145°
2026-04-20 03:33 37.46376 126.42620 28 ft 15 kts 145°
2026-04-20 03:33 37.46286 126.42699 28 ft 15 kts 145°
2026-04-20 03:33 37.46195 126.42781 28 ft 16 kts 145°
2026-04-20 03:33 37.46101 126.42864 28 ft 16 kts 144°
2026-04-20 03:34 37.46005 126.42950 28 ft 17 kts 145°
2026-04-20 03:34 37.45907 126.43037 28 ft 17 kts 145°
2026-04-20 03:34 37.45814 126.43133 28 ft 17 kts 115°
2026-04-20 03:34 37.45855 126.43264 28 ft 17 kts 53°
2026-04-20 03:35 37.45924 126.43385 28 ft 17 kts 54°
2026-04-20 03:35 37.45994 126.43509 28 ft 17 kts 55°
2026-04-20 03:35 37.46065 126.43634 28 ft 17 kts 55°
2026-04-20 03:35 37.46133 126.43716 28 ft 13 kts
2026-04-20 03:36 37.46189 126.43688 28 ft 5 kts 321°
2026-04-20 03:36 37.46222 126.43660 28 ft 6 kts 327°
2026-04-20 03:36 37.46267 126.43621 28 ft 9 kts 324°
2026-04-20 03:36 37.46324 126.43571 28 ft 10 kts 325°
2026-04-20 03:37 37.46388 126.43514 28 ft 12 kts 325°
2026-04-20 03:37 37.46413 126.43456 28 ft 8 kts 252°
2026-04-20 03:37 37.46384 126.43394 28 ft 8 kts 238°
2026-04-20 03:37 37.46368 126.43362 28 ft 1 kts 239°
2026-04-20 03:38 37.46367 126.43359 28 ft 0 kts 239°